Regional Weather Roundup
Issued by NWS

Home | Current Version | Previous Version | Text Only | Print | Product List | Glossary Off
Versions: 1 2 3 4 5 6 7 8 9 10 11 12 13 14 15 16 17 18 19 20 21 22 23 24 25 26 27 28 29 30 31 32 33 34 35 36 37 38 39 40 41 42 43 44 45 46 47 48 49 50

000
ASUS43 KFSD 242010
RWRSD

WEATHER ROUNDUP FOR SOUTH DAKOTA
NATIONAL WEATHER SERVICE SIOUX FALLS SD
300 PM CDT TUE MAY 24 2016

NOTE: "FAIR" INDICATES FEW OR NO CLOUDS BELOW 12,000 FEET WITH NO
SIGNIFICANT WEATHER AND/OR OBSTRUCTIONS TO VISIBILITY.


SDZ001>005-009-010-012>017-242100-
NORTHWEST AND NORTH CENTRAL SOUTH DAKOTA

CITY           SKY/WX    TMP DP  RH WIND       PRES   REMARKS
BUFFALO          N/A     74  40  29 SE10G25   29.82F
FAITH            N/A     74  43  32 SE10      29.88F
MOBRIDGE       SUNNY     76  48  37 W7        29.86F
$$

SDZ012>016-024>037-041>051-057-063-072>074-242100-
SOUTHWEST AND SOUTH CENTRAL SOUTH DAKOTA

CITY           SKY/WX    TMP DP  RH WIND       PRES   REMARKS
RAPID CTY ARPT CLOUDY    68  42  38 SE8       29.91R
PIERRE         SUNNY     79  41  25 CALM      29.85F
CUSTER         LGT RAIN  51  46  83 NW5       29.98S
ELLSWORTH AFB  PTSUNNY   70  43  38 SE10      29.90S
PHILIP         SUNNY     76  46  34 VRB7      29.86F
PINE RIDGE     PTSUNNY   78  41  26 S8        29.86F
WINNER         FAIR      81  44  27 MISG      29.87F
$$

SDZ004>011-016>023-039-040-242100-
NORTHEAST SOUTH DAKOTA

CITY           SKY/WX    TMP DP  RH WIND       PRES   REMARKS
ABERDEEN       SUNNY     82  47  29 VRB5      29.84F
WATERTOWN      SUNNY     80  56  43 S7        29.88S
BROOKINGS      SUNNY     82  53  36 S3        29.87F
SISSETON         N/A     85  48  27 SW9       29.83S
$$

SDZ017-020-022-023-036>040-048>070-242100-
SOUTHEAST SOUTH DAKOTA

CITY           SKY/WX    TMP DP  RH WIND       PRES   REMARKS
SIOUX FALLS    MOSUNNY   83  52  34 NW6       29.87S
HURON          SUNNY     82  54  37 VRB5      29.84F
CHAMBERLAIN    SUNNY     82  44  27 S5        29.86F
MITCHELL       SUNNY     84  48  28 SW7       29.85F
YANKTON        SUNNY     82  54  36 CALM      29.84F
$$

ABBREVIATIONS USED IN REMARKS
   TC - TEMPERATURE IN CELSIUS
  WCI - WIND CHILL INDEX
   HX - HEAT INDEX
  VSB - VISIBILITY





USA.gov is the U.S. government's official web portal to all federal, state and local government web resources and services.